Regional Weather Roundup
Issued by NWS

Home | Current Version | Previous Version | Graphics & Text | Print | Product List | Glossary On
Versions: 1 2 3 4 5 6 7 8 9 10 11 12 13 14 15 16 17 18 19 20 21 22 23 24 25 26 27 28 29 30 31 32 33 34 35 36 37 38 39 40 41 42 43 44 45 46 47 48 49 50
000
ASUS45 KCYS 271410
RWRWY

WYOMING REGIONAL WEATHER ROUNDUP
NATIONAL WEATHER SERVICE CHEYENNE WY
800 AM MDT WED AUG 27 2014

NOTE:  "FAIR" INDICATES FEW OR NO CLOUDS BELOW 12,000 FEET
WITH NO SIGNIFICANT WEATHER AND/OR OBSTRUCTIONS TO VISIBILITY.

WYZ001-271500-
YELLOWSTONE NATIONAL PARK

CITY           SKY/WX    TMP DP  RH WIND       PRES   REMARKS
LK YELLOWSTONE   N/A     38  36  92 CALM      30.40R
W YELLOWSTONE  NOT AVBL

$$
WYZ002>013-054>058-071-098>099-271500-
NORTHERN WYOMING

CITY           SKY/WX    TMP DP  RH WIND       PRES   REMARKS
JACKSON        MOSUNNY   41  39  93 CALM      30.32R
CODY           MOSUNNY   57  46  67 SW5       30.19S
GREYBULL       MOSUNNY   56  50  80 NW3       30.14S
WORLAND          N/A     57  53  86 CALM      30.15
SHERIDAN       MOSUNNY   55  50  83 NE5       30.14S
BUFFALO        MOSUNNY   61  46  57 W3        30.20R
GILLETTE       PTSUNNY   59  56  89 CALM      30.17R
HULETT         FAIR      55  52  88 MISG      30.19
NEWCASTLE      FAIR      63  54  72 N5        30.19

$$
WYZ014>020-022>026-101>103-271500-
CENTRAL WYOMING

CITY           SKY/WX    TMP DP  RH WIND       PRES   REMARKS
BIG PINEY      CLOUDY    50  46  86 CALM      30.31S
PINEDALE       CLOUDY    48  46  93 E3        30.33R
DUBOIS         FAIR      45  39  81 NW12      30.31S
LANDER         CLOUDY    58  47  66 W3        30.20S
RIVERTON       CLOUDY    56  48  74 CALM      30.21S
CASPER         CLOUDY    57  52  83 CALM      30.20R
DOUGLAS        CLOUDY    59  58  96 E3        30.20R FOG

$$
WYZ021-027>030-104>119-271500-
SOUTHERN WYOMING

CITY           SKY/WX    TMP DP  RH WIND       PRES   REMARKS
EVANSTON       CLOUDY    50  45  83 S5        30.33R
KEMMERER       RAIN      50  46  87 NW6       30.34R
FORT BRIDGER   CLOUDY    51  49  94 W5        30.35R
ROCK SPRINGS   LGT RAIN  50  49  96 SE9       30.31R
DIXON          LGT RAIN  53  51  94 E3        30.34S
RAWLINS        LGT RAIN  51  50  96 SW14      30.30R FOG
SARATOGA       RAIN      50  48  93 MISG      30.32S
LARAMIE        LGT RAIN  52  49  89 SW9       30.28R
CHEYENNE       LGT RAIN  57  53  86 NW7       30.21F FOG
TORRINGTON     FOG       62  62 100 E6        30.14R VSB 1/4
PINE BLUFFS    CLOUDY    59  59 100 CALM      30.18S FOG

$$


USA.gov is the U.S. government's official web portal to all federal, state and local government web resources and services.